HULIANWANG DIGUI-163

Last updated on Sun Apr 12 2026 00:02:06 GMT+0000 (Coordinated Universal Time)

1 68137U 26047J 26101.03215299 -.00000115 00000+0 26706-4 0 9997 2 68137 50.0041 300.5174 0001115 134.9276 225.1706 13.73429565 4087
UTC large
Height (km)
Speed (km/s)
/
Latitude / Longitude
Inclination (degrees)
Orbital Period (minutes)
Azimuth
Elevation
Range (km)
Doppler Factor

Next 0 passes for location: London (51.5072 / 0.1276)

Sorry there are no passes over London.
HULIANWANG DIGUI-163